Αρχική σελίδα
METAR-TAF:

METAR-TAF

Αεροδρόμια :

Aurora Municipal Airport (Al Potter Field)

Aurora, Νεμπράσκα, Ηνωμένες Πολιτείες Αμερικής

γεωγραφικό πλάτος: 40-53-38N, γεωγραφικό μήκος: 097-59-40W, υψόμετρο: 550 μ

Παρών καιρός

Η αναφορά έγινε 29 λεπτά πριν, στις 18:55 UTC
Άνεμος 8 kt από ΝΔ
Θερμοκρασία -1°C
Υγρασία 69%
Πίεση 1023 hPa
Ορατότητα: 16.1 χλμ
Καθαρός ουρανός

METAR: KAUH 181855Z AUTO 22008KT 10SM CLR M01/M06 A3021 RMK AO2 T10151056

Χρόνος: 13:24 (19:24 UTC)


TAF: λείπει

Μετεωρολογικές αναφορές και προγνώσεις για περισσότερα από 4000 αεροδρόμια (δελτία METAR και TAF).

Οι διαθέσιμοι σταθμοί απεικονίζονται στο χάρτη με κίτρινες και κόκκινες κουκκίδες.

Μετακινήστε το ποντίκι πάνω από τις κουκκίδες για να δείτε το όνομα του σταθμού.

Στη συνέχεια, κάντε κλικ για να δείτε τις μετεωρολογικές αναφορές και τις προγνώσεις καιρού.

Για να αλλάξετε το χάρτη: κάντε κλικ στα πράσινα κουμπιά με τον μαύρο σταυρό για να ζουμάρετε, στο πράσινο κουμπί με την παύλα για να αφαιρέσετε το ζουμ ή στα πράσινα βέλη για να αντιπαραβάλλετε χάρτες.


METAR-TAF: